Theta_e
315 314 313 312 311 312 310 308 306 306 306 305 304 305 305 306 306 304 305 305 305 305 305 305 305 306 308 306 306 306 306 304 303 301 302 302 300 300 300 298 297 299
314 314 314 313 312 312 310 309 307 306 306 306 305 305 305 306 306 306 306 306 306 304 304 305 305 306 306 306 305 305 304 304 304 305 302 301 300 300 299 298 298 297
314 314 313 312 313 311 310 309 308 306 307 306 305 305 307 307 307 304 306 306 304 304 305 305 305 305 306 305 305 305 304 303 303 301 303 301 300 301 300 300 298 299
315 314 313 313 313 312 310 309 307 307 306 307 306 307 307 309 306 305 306 311 305 305 304 305 305 305 305 305 304 304 303 303 303 302 302 301 301 301 300 301 302 301
316 314 313 314 314 313 311 310 308 307 307 308 307 307 309 308 305 305 306 306 305 304 304 305 304 304 305 304 304 303 303 304 304 303 302 302 301 302 301 302 300 300
316 314 313 313 314 313 311 311 310 309 308 307 308 309 307 308 306 305 306 305 304 305 304 304 304 304 304 303 303 304 305 305 304 303 303 302 301 302 304 301 300 300
315 314 313 313 313 313 312 312 311 310 309 309 308 308 308 308 306 305 306 305 304 305 304 305 304 303 303 304 304 303 304 304 303 303 303 301 303 301 302 300 300 299
315 315 313 312 312 313 312 312 311 311 310 308 308 309 309 310 307 306 306 305 304 304 304 304 305 304 303 303 304 304 303 304 304 303 302 302 302 301 301 303 301 299
315 314 312 311 311 311 311 311 311 311 311 310 309 309 309 310 308 307 307 306 305 305 304 304 305 304 303 304 303 303 303 302 304 303 302 302 301 301 302 301 300 301
312 313 313 311 310 311 311 310 310 311 312 311 310 309 309 308 307 307 307 306 305 305 304 305 305 305 304 303 305 303 304 303 302 302 302 302 302 301 301 302 301 299
312 313 313 312 311 309 309 309 310 311 311 309 308 308 309 309 309 309 308 307 308 307 306 306 306 306 306 304 304 304 304 304 303 302 302 303 303 302 304 302 302 300
311 312 312 311 311 309 309 310 312 312 312 311 311 310 310 310 310 310 310 308 308 308 307 307 306 306 306 305 305 306 306 305 305 303 302 302 302 302 303 302 302 301
311 311 312 312 312 312 312 313 312 312 312 312 312 312 312 312 312 311 311 311 310 310 310 310 309 308 306 305 307 306 306 305 303 303 304 303 303 303 303 302 301 301
311 312 313 313 313 313 313 313 312 312 311 311 312 312 313 313 313 313 312 312 312 311 312 311 311 310 308 307 307 307 305 304 304 303 303 303 302 302 302 303 303 302
311 312 313 313 314 314 314 314 313 313 313 313 313 312 313 313 312 313 313 313 313 314 313 312 310 310 311 310 308 307 307 307 306 306 306 305 304 303 303 302 302 302
312 313 313 313 312 313 313 313 313 313 313 313 313 313 313 312 312 312 312 312 313 313 312 310 310 310 309 306 306 307 306 308 307 306 306 306 305 304 303 303 302 302
311 312 313 312 312 313 312 312 312 312 312 312 312 312 312 312 312 312 312 312 312 311 309 309 309 309 303 300 301 300 304 305 306 306 305 306 305 304 304 303 302 301
309 310 310 309 308 308 310 311 312 311 311 311 311 311 312 311 311 311 310 310 310 308 307 308 307 300 296 299 298 297 300 305 305 306 306 305 305 305 304 303 302 300
306 308 307 306 306 307 308 310 310 310 308 307 307 308 307 308 309 308 309 308 307 308 308 305 304 296 293 295 296 296 297 299 304 305 306 306 305 304 303 302 301 299
302 302 303 304 304 304 305 308 308 308 306 304 304 304 306 306 306 306 307 306 306 306 302 296 295 295 293 294 295 295 295 295 299 300 301 302 302 302 301 299 298 299
299 298 299 299 298 298 299 300 303 300 301 302 303 304 304 304 304 303 302 302 301 299 296 293 294 293 293 294 295 295 295 296 297 297 296 295 296 298 297 297 297 299
297 295 295 295 295 295 295 296 295 296 297 296 295 295 295 295 295 296 299 297 296 295 293 291 291 293 292 293 293 293 295 296 294 294 294 294 294 294 295 296 297 298
296 296 296 294 294 294 294 294 294 293 293 293 293 292 294 295 297 295 295 295 293 291 292 290 292 293 293 293 293 293 294 295 294 295 294 294 294 294 295 295 296 296
296 297 296 295 294 295 294 293 292 292 292 293 294 293 294 294 292 294 292 293 292 290 291 292 290 292 293 292 293 293 295 294 293 293 292 292 292 291 291 292 296 302
295 295 296 296 296 295 294 293 293 294 292 291 293 293 292 292 294 294 292 290 289 290 297 290 288 291 292 292 292 293 294 292 293 292 291 288 290 289 289 289 290 294
295 296 295 295 295 295 295 296 296 295 292 293 290 293 293 291 293 293 291 289 288 287 288 287 288 288 290 292 292 292 293 293 292 292 290 288 289 290 289 288 289 290
Wind_Speed
7 7 8 7 7 7 8 7 5 6 6 5 6 5 5 4 4 4 4 4 5 5 5 5 5 5 5 5 5 6 6 6 4 4 6 6 5 6 6 5 4 5
5 8 6 6 6 6 7 8 7 7 7 6 5 4 3 4 4 5 5 5 5 5 5 5 5 5 5 6 5 7 5 5 5 3 6 6 4 6 6 5 5 3
5 5 6 8 8 8 8 6 6 6 7 6 4 3 4 3 5 4 6 6 6 5 5 5 5 5 5 5 4 5 6 5 5 3 5 5 4 5 4 4 4 4
2 3 6 8 8 9 7 7 5 5 4 6 5 5 3 3 4 4 5 5 6 5 5 5 6 5 5 6 5 6 5 5 4 4 5 3 3 4 3 3 3 3
13 12 7 7 7 6 7 7 7 6 6 7 4 4 3 3 3 4 4 5 5 5 5 6 5 5 5 6 6 6 5 6 4 5 6 5 2 3 3 4 4 3
9 9 6 6 7 7 8 8 7 7 6 4 6 4 3 3 2 3 2 4 4 5 5 4 5 4 5 5 5 6 6 6 5 5 6 5 3 1 3 4 4 4
10 9 9 6 6 7 8 9 8 7 5 5 4 4 4 4 3 3 3 2 3 4 4 5 5 5 4 5 5 6 5 6 5 5 6 5 5 3 2 4 4 4
0 4 6 5 6 6 6 7 9 8 6 4 5 5 5 5 5 4 3 2 3 4 4 4 5 6 4 4 5 6 5 5 6 6 5 5 5 5 4 4 4 5
1 2 2 4 5 5 4 3 2 5 8 8 6 5 4 5 5 5 4 3 3 3 3 4 4 4 3 3 3 4 4 3 3 5 6 6 6 6 6 4 4 4
3 5 8 7 7 6 7 5 4 2 1 4 6 5 5 2 2 2 2 3 4 4 4 4 3 3 4 4 5 5 5 5 4 4 4 4 6 6 5 5 5 4
4 6 7 7 6 4 4 4 5 6 4 2 3 3 3 3 2 2 2 2 4 5 5 5 6 5 5 5 3 2 3 4 5 5 4 4 5 6 6 6 5 6
5 4 4 6 4 3 3 5 6 7 7 4 3 3 4 5 4 4 2 2 3 3 3 4 4 4 4 4 4 3 3 3 3 3 4 4 4 4 5 6 6 6
7 7 8 8 7 5 5 6 7 8 6 4 5 5 5 6 6 6 4 5 6 6 4 4 6 4 4 4 4 4 3 3 3 3 3 4 3 3 4 4 5 6
9 8 8 9 9 9 8 7 5 5 6 8 7 4 4 5 4 3 2 1 1 3 5 6 6 6 4 4 4 4 4 4 4 4 4 4 4 4 4 5 6 6
10 7 6 6 4 5 9 11 11 9 5 3 7 7 5 4 2 1 2 4 3 4 8 6 5 5 4 3 3 2 2 4 4 4 5 5 5 5 5 6 6 6
9 12 13 11 8 6 5 7 8 8 9 9 10 10 8 6 6 4 2 4 8 10 8 5 4 3 4 6 4 2 3 4 3 4 4 5 5 5 5 6 7 6
9 8 10 11 11 9 7 6 5 6 7 6 5 5 7 7 7 8 9 9 9 8 6 5 4 2 1 1 4 7 5 4 5 5 4 5 5 6 7 7 6 6
7 5 6 6 4 4 5 7 7 7 7 8 8 8 8 7 7 8 9 7 6 5 5 6 4 0 1 3 5 7 7 5 4 5 5 5 6 6 7 6 7 6
4 5 5 4 4 4 5 5 7 7 7 6 8 6 4 5 6 5 6 6 5 6 6 4 2 1 5 7 9 8 7 5 4 4 4 5 5 5 6 6 4 4
2 3 4 4 4 4 4 6 6 8 7 5 3 2 4 6 6 7 7 7 8 6 4 1 1 4 8 9 5 1 1 2 2 3 3 3 4 4 4 4 4 6
3 3 4 4 4 4 4 5 6 5 4 4 5 6 6 7 8 7 6 5 4 3 4 4 4 4 5 2 3 4 4 2 1 1 2 2 1 2 3 3 4 5
4 4 4 5 4 5 6 6 5 6 6 4 4 4 3 4 3 4 7 6 5 7 6 4 1 1 3 5 7 8 8 4 3 3 3 3 3 3 2 2 3 4
5 5 5 5 5 6 5 6 5 4 4 3 6 4 4 2 2 1 2 5 5 4 5 3 1 1 1 5 8 10 7 5 4 5 4 5 5 5 4 4 2 3
3 6 6 5 5 6 5 5 4 2 2 2 5 5 4 3 3 5 3 2 2 1 1 4 3 1 1 3 7 7 7 6 5 6 5 4 5 5 5 5 6 8
1 2 2 6 5 6 6 5 5 4 3 3 5 5 4 3 3 6 5 4 3 2 4 3 2 4 4 1 6 7 6 5 6 6 5 3 5 4 4 5 5 7
2 2 1 2 4 5 4 3 2 4 4 5 4 5 6 5 4 5 6 4 3 4 4 3 3 2 1 3 5 6 7 5 5 6 5 4 3 5 5 4 4 5
Wind_Direction
161 164 163 169 172 171 162 163 179 163 168 165 170 190 178 178 159 147 137 124 128 128 134 130 125 118 112 103 102 99 98 105 103 109 98 102 107 111 107 111 100 113
192 169 170 167 170 180 171 169 172 172 171 174 187 180 199 156 180 152 144 140 136 141 140 134 130 129 126 120 118 111 108 110 113 126 110 105 120 105 114 118 118 118
181 186 172 176 180 187 179 175 167 175 170 176 170 190 192 187 170 172 151 148 145 146 145 139 132 132 129 124 119 114 119 114 115 113 109 123 125 115 131 122 111 120
6 276 209 191 187 185 177 163 170 172 161 163 189 187 192 202 182 173 165 153 146 152 151 146 147 147 142 141 131 128 134 130 137 128 109 94 109 119 133 117 112 99
186 208 212 206 200 191 167 169 174 179 182 187 163 176 190 205 207 191 177 167 153 152 155 158 155 156 151 148 145 139 147 138 144 135 130 135 142 122 149 123 121 115
189 188 196 215 201 189 184 179 180 180 187 174 187 166 187 182 206 234 218 177 170 154 156 154 160 161 157 152 148 150 155 148 160 142 140 151 166 138 138 130 130 136
190 184 187 196 219 206 196 182 174 181 189 190 149 185 165 180 204 223 231 216 181 171 161 166 166 173 176 158 157 160 168 163 162 160 154 165 154 162 153 150 146 149
270 218 188 177 199 219 223 195 173 177 187 158 185 191 171 186 194 200 213 231 202 196 188 179 179 177 182 170 164 166 175 170 170 170 163 166 163 171 180 183 156 157
104 299 288 185 198 208 227 262 263 202 169 175 191 187 185 187 190 188 192 203 225 227 215 202 195 189 181 182 171 170 172 199 196 179 169 166 174 183 184 168 158 175
105 162 201 190 184 189 185 182 152 141 241 205 180 169 182 182 158 175 180 191 213 229 224 214 205 192 189 195 187 180 181 193 202 218 209 189 182 184 181 173 184 182
134 143 158 176 178 175 146 96 78 59 45 51 94 105 108 122 128 124 174 212 226 221 220 218 210 195 193 205 208 208 202 194 196 202 210 216 209 192 185 183 184 191
67 49 77 100 95 79 91 102 106 110 106 80 42 53 64 57 57 38 35 310 273 268 278 276 253 220 202 193 189 187 194 201 214 224 228 219 232 232 200 191 188 201
117 117 116 104 94 89 91 100 108 113 112 107 108 90 75 76 79 79 55 18 348 342 315 282 270 254 231 205 202 194 191 193 193 206 238 252 246 247 247 213 205 199
128 124 115 118 122 119 108 97 83 87 102 110 91 87 108 109 111 115 129 135 320 330 309 296 289 277 251 233 219 207 194 205 194 200 224 242 244 238 243 243 224 211
112 89 70 65 63 90 120 121 123 117 102 102 133 148 162 136 82 99 210 245 228 231 240 243 264 273 271 253 248 249 230 224 220 219 220 229 237 235 226 225 234 228
135 139 142 145 146 156 167 146 143 144 154 174 176 169 154 132 139 149 170 238 232 233 235 231 243 253 268 279 282 283 270 258 251 238 232 235 240 246 244 236 234 228
153 158 153 157 166 172 165 143 137 138 142 156 154 158 157 165 178 188 203 210 217 227 237 243 246 236 69 197 235 241 236 241 240 241 229 229 229 229 235 234 236 234
160 161 149 149 163 167 171 152 148 153 169 176 175 175 183 173 186 200 209 217 224 234 243 249 258 131 225 228 227 228 219 225 232 238 241 235 233 230 233 230 228 220
173 159 153 155 183 172 163 157 151 165 183 190 195 186 153 172 205 208 221 222 223 230 240 241 239 303 300 265 248 245 243 228 238 240 244 247 242 239 235 231 217 190
150 138 154 169 173 173 166 158 159 181 193 204 199 170 183 198 195 200 205 205 207 211 208 171 205 242 243 240 242 282 325 211 246 266 258 257 248 235 231 221 188 169
134 134 151 151 148 147 138 152 172 179 193 203 196 197 196 198 195 199 206 205 199 171 151 181 215 251 255 226 120 114 105 88 46 44 49 42 51 150 152 145 153 163
138 130 129 130 129 130 129 141 152 163 166 169 135 127 131 140 134 144 154 154 162 159 155 162 203 208 174 147 117 106 98 79 73 65 60 45 32 33 52 90 131 144
153 147 147 150 148 129 133 139 137 143 147 135 91 96 98 107 180 125 136 136 140 143 133 147 165 32 194 152 124 113 92 91 87 77 60 59 42 33 30 33 45 108
213 157 155 158 147 148 151 155 141 142 157 177 122 125 107 145 142 95 75 81 110 116 112 152 185 324 300 171 131 126 121 118 111 98 83 75 61 36 30 31 22 49
220 319 195 161 164 174 161 158 168 153 139 104 109 105 103 87 82 85 64 46 54 81 60 53 43 20 21 43 120 123 113 113 113 106 101 81 88 65 41 45 37 39
174 168 239 247 192 177 176 152 128 125 118 102 76 93 101 85 90 92 85 52 42 58 63 71 84 36 31 82 120 117 121 119 120 118 125 119 102 108 86 49 57 64